Theta_e
312 318 323 326 325 336 337 337 337 337 334 331 329 331 330 330 332 332 333 336 336 335 334 333 333 330 329 323 324 323 319 316 316 312 311 311 314 310 311 315 314 314 314
309 317 323 326 330 330 335 335 336 332 333 334 334 333 330 331 336 336 335 334 333 332 330 327 326 326 322 321 323 322 319 316 316 311 307 302 304 306 306 306 307 308 308
307 317 321 325 328 329 331 333 333 331 333 332 326 323 321 320 328 328 329 329 327 326 326 327 324 323 322 321 323 322 320 316 315 313 310 301 302 305 303 303 304 304 304
314 318 320 322 327 328 330 331 330 330 331 331 328 325 325 327 326 327 324 323 320 319 318 318 319 319 319 318 318 319 321 319 311 313 314 309 306 302 298 299 302 303 302
316 319 320 322 325 325 326 328 329 332 329 331 329 326 326 326 320 318 316 317 317 316 315 314 314 315 315 317 317 317 317 317 314 311 311 311 303 302 298 295 297 299 302
316 318 319 320 321 325 326 328 329 328 328 328 328 327 325 320 316 316 316 316 316 316 314 312 312 312 312 312 314 316 316 316 315 313 313 309 304 301 299 299 297 298 299
316 316 317 318 319 322 326 329 330 326 326 325 323 322 321 318 316 315 315 314 313 313 313 311 311 310 310 311 312 313 314 314 312 312 312 312 311 308 304 302 296 294 295
318 320 321 322 324 326 326 326 325 321 321 320 319 318 318 315 315 315 313 313 314 314 312 310 310 310 309 309 310 311 311 311 311 310 309 310 312 313 306 303 296 291 290
316 317 318 319 321 322 321 321 319 316 317 317 318 317 317 315 314 315 315 315 314 311 310 310 309 308 308 308 309 309 308 305 307 304 304 305 306 308 311 307 300 295 286
312 314 314 314 314 316 316 316 316 314 315 315 316 315 315 315 314 314 313 312 312 311 309 310 309 307 307 307 307 307 306 302 304 303 302 303 306 306 307 309 305 300 295
311 312 311 311 311 311 311 312 312 312 312 312 312 312 312 311 312 311 312 312 310 309 308 308 308 307 306 306 305 305 305 303 302 303 303 303 304 303 304 305 304 301 299
312 312 312 310 309 310 310 309 308 307 307 306 307 308 310 310 309 310 311 311 310 310 309 308 306 306 306 305 304 302 302 302 301 301 302 301 300 299 300 300 300 300 301
309 309 309 309 309 308 306 304 303 303 305 307 308 307 308 307 307 308 308 307 308 308 308 306 306 306 305 304 304 302 302 300 299 301 301 299 298 297 297 297 297 300 299
306 308 309 308 307 305 303 302 304 306 305 305 305 305 306 305 306 305 305 306 305 306 306 306 305 305 306 305 302 301 300 300 300 300 297 297 296 295 294 296 297 295 293
303 303 305 307 303 301 302 303 304 304 304 304 304 305 305 304 303 304 304 305 305 305 306 306 304 303 303 302 301 300 298 299 299 297 296 295 296 294 294 294 294 291 288
303 304 303 302 300 301 302 302 302 303 304 303 303 303 302 302 303 303 303 304 304 304 305 305 303 302 300 297 296 297 297 298 296 294 294 294 294 294 293 292 292 291 287
305 303 299 299 300 301 301 300 300 301 302 302 302 301 302 302 302 302 302 302 302 303 303 304 302 300 300 295 295 293 296 295 295 293 291 291 293 293 294 292 291 289 289
302 299 299 300 301 302 301 300 299 300 300 300 301 301 301 300 300 301 300 301 301 301 300 301 302 300 298 293 294 292 295 294 293 292 291 292 292 291 291 291 290 289 289
302 301 300 301 300 299 299 299 299 299 299 299 300 300 299 299 299 298 299 300 299 300 300 300 300 299 298 292 292 292 292 292 291 291 291 292 292 290 291 289 287 287 287
299 298 298 298 298 298 299 299 298 298 298 299 299 298 298 298 298 299 298 298 296 295 293 292 295 295 298 293 292 291 293 290 289 289 290 290 292 289 288 290 289 286 286
296 297 297 297 297 296 296 296 295 296 297 297 297 297 297 298 299 299 299 297 293 291 289 290 291 291 292 294 292 291 292 290 289 288 287 289 288 288 289 289 290 289 288
293 294 293 293 294 295 296 295 293 294 295 294 294 296 295 297 297 297 297 296 293 289 287 287 288 290 289 289 290 291 290 290 288 288 288 288 288 288 288 288 288 287 287
291 292 293 294 296 297 297 296 295 296 295 294 292 292 292 292 295 294 292 292 290 289 288 287 287 287 287 288 288 289 289 288 287 287 287 288 288 287 286 286 286 286 287
292 293 294 294 294 295 296 296 295 296 295 295 293 292 290 292 292 291 290 291 289 289 287 286 286 286 286 286 287 287 288 287 286 286 286 286 286 287 285 285 285 289 288
293 294 294 293 293 294 294 294 294 295 294 294 294 294 294 294 291 289 290 289 287 288 288 287 286 285 285 286 286 286 285 286 285 285 285 285 285 285 285 285 285 285 287
292 292 291 292 292 293 293 294 293 293 292 291 292 292 292 291 289 288 289 287 286 287 287 287 286 286 286 287 287 287 287 286 285 285 285 284 285 285 285 284 283 284 285
Wind_Speed
5 5 5 6 10 13 15 17 16 14 11 8 7 4 3 3 4 5 7 6 5 6 6 4 5 5 6 5 6 4 6 5 6 3 3 3 5 6 5 6 7 8 7
8 8 5 4 8 13 15 15 15 14 11 8 7 4 4 2 3 4 5 4 5 5 4 4 5 5 4 6 8 8 4 4 8 3 2 3 2 5 5 5 6 6 4
8 7 4 5 6 9 12 13 15 13 12 12 8 5 4 2 3 4 3 3 3 4 4 5 5 6 6 6 7 8 9 6 7 8 3 3 5 4 3 7 5 5 3
3 4 6 7 9 9 12 14 13 14 12 15 9 8 5 5 3 2 1 2 3 3 3 4 5 5 6 6 6 6 8 7 5 5 7 1 1 5 4 3 5 5 7
6 7 8 8 7 8 10 10 13 14 12 13 10 7 7 4 3 2 3 4 4 5 5 5 5 6 5 7 9 8 8 6 5 4 2 8 2 1 1 3 3 4 5
6 6 5 6 6 7 10 12 13 12 12 11 10 10 10 7 4 4 4 4 3 4 6 7 6 7 7 7 6 8 9 9 8 5 6 5 4 5 3 4 3 7 6
9 10 9 8 8 10 12 12 14 13 13 12 12 11 9 8 8 6 5 5 5 5 7 8 8 7 6 7 7 8 7 7 6 8 7 6 5 3 6 7 2 3 2
10 12 12 11 11 11 12 12 13 13 13 11 9 8 8 5 5 6 6 6 6 6 5 6 7 8 8 8 7 6 6 7 7 10 8 7 8 8 5 5 6 2 0
12 12 11 11 11 12 12 13 13 11 9 9 6 6 5 5 6 7 6 6 7 6 7 8 9 9 8 9 8 7 8 7 7 7 8 7 6 5 7 6 7 6 6
12 12 11 12 11 11 11 9 8 9 7 6 5 5 5 6 6 5 8 8 8 8 9 9 9 9 9 8 8 8 8 8 6 6 7 8 7 8 8 8 8 8 6
14 15 14 12 12 9 9 8 7 8 7 5 5 5 4 3 3 5 6 7 7 7 8 8 8 10 10 9 9 10 9 10 9 9 9 10 10 8 6 5 5 10 9
14 14 14 12 13 13 11 9 7 7 6 5 4 4 3 4 3 4 6 7 9 9 10 9 9 10 11 11 12 12 10 11 10 9 9 10 5 8 8 4 8 8 10
12 13 13 14 14 13 10 8 7 7 5 6 6 5 4 2 2 5 6 7 9 11 11 11 12 12 12 12 13 11 10 10 9 10 10 8 8 8 5 6 6 8 8
12 14 14 16 14 11 10 9 8 7 7 5 4 3 3 2 3 4 6 8 9 10 11 10 12 12 11 12 10 9 10 11 10 10 8 6 6 7 7 7 10 5 8
12 12 14 15 12 10 9 8 8 8 7 6 5 4 2 1 4 6 7 9 9 10 10 10 8 8 8 8 10 9 8 9 10 8 7 5 5 9 8 5 3 10 8
14 13 14 13 13 11 10 8 8 7 7 6 5 2 0 3 5 6 8 9 10 11 11 11 11 9 7 9 12 9 6 10 9 7 6 4 5 8 10 10 13 15 14
12 11 13 13 11 13 11 10 8 7 6 5 3 3 1 5 6 8 10 11 13 12 12 10 8 9 9 10 13 15 7 7 8 6 5 4 3 7 5 7 10 16 19
9 9 8 11 12 13 11 7 7 6 4 4 4 2 3 5 7 9 11 12 12 13 11 9 7 7 6 10 12 12 8 7 7 7 6 5 5 4 4 6 9 10 11
6 6 8 11 11 11 9 8 7 6 5 6 5 3 3 6 7 9 10 11 11 11 10 5 5 5 6 8 10 9 7 7 7 7 6 7 6 6 8 8 9 8 6
6 11 12 11 11 7 7 7 6 6 7 5 4 3 4 5 6 7 9 7 7 6 4 5 4 6 8 6 10 10 5 7 5 6 6 10 9 9 7 7 10 9 8
11 12 12 10 9 8 7 6 4 6 1 1 3 3 5 6 5 5 5 5 4 4 3 5 4 4 5 6 9 12 6 6 6 6 6 4 10 11 10 8 8 9 10
9 10 10 8 7 6 5 5 3 1 1 1 3 4 4 4 4 6 5 5 4 4 4 3 4 3 4 6 6 7 11 7 7 7 6 6 12 11 11 6 7 14 11
8 6 8 10 7 6 5 5 3 4 4 4 3 3 5 5 6 5 3 3 2 3 3 3 3 3 3 3 7 6 6 8 4 4 8 11 12 12 7 5 11 9 7
7 6 9 8 7 6 6 5 4 4 4 5 5 5 4 7 4 3 3 3 2 3 3 3 3 3 3 3 3 2 2 7 4 5 7 9 8 7 7 6 5 3 6
7 7 7 6 6 4 4 4 3 2 4 5 6 6 5 7 5 4 3 3 2 3 2 1 2 2 2 2 2 1 3 4 5 6 5 6 6 6 6 5 4 3 3
8 7 6 4 3 2 2 3 3 2 3 5 5 5 5 4 4 4 3 5 5 6 6 5 3 1 4 3 2 3 6 9 10 3 5 6 6 6 7 7 6 4 5
Wind_Direction
250 211 226 231 224 215 200 193 182 180 167 153 164 163 169 165 196 199 202 208 222 227 232 249 248 242 240 223 222 232 215 199 177 140 198 205 214 217 226 225 222 212 194
248 229 235 261 224 208 201 187 183 168 167 167 168 147 151 159 205 193 192 220 228 230 229 242 257 260 247 235 234 218 192 188 172 173 160 201 235 231 203 202 214 197 200
252 228 232 226 207 193 186 183 178 164 165 159 128 109 96 108 174 188 206 210 217 226 232 240 252 258 252 253 245 239 227 214 192 190 186 168 231 187 171 216 202 183 169
249 203 209 211 195 181 181 176 163 162 158 161 152 157 161 176 177 171 144 229 228 235 252 263 260 263 265 266 261 254 237 226 202 201 217 174 119 195 198 197 207 199 181
227 205 205 205 190 172 171 160 162 158 159 169 164 157 166 166 125 157 214 231 245 249 252 259 259 260 256 255 250 240 231 217 216 204 169 219 147 79 121 202 197 182 202
198 211 204 182 166 165 168 165 163 157 160 166 170 173 171 172 178 203 235 245 251 255 243 237 242 240 238 244 250 247 238 228 225 214 217 206 180 182 175 209 192 214 186
192 193 187 181 175 172 169 164 163 159 171 174 175 177 182 183 207 212 223 237 240 237 234 225 228 237 234 233 229 231 235 235 237 238 242 235 237 203 227 229 147 159 147
201 200 195 190 180 171 168 167 172 171 176 179 182 185 187 199 216 225 228 243 250 257 243 239 242 243 234 231 233 242 242 242 245 248 248 256 253 243 188 199 149 118 73
213 210 205 203 195 188 186 186 182 182 182 192 191 200 212 219 236 242 248 258 256 258 252 240 241 241 239 237 232 241 245 238 241 246 250 249 256 268 259 215 192 159 173
222 221 222 217 212 204 199 201 203 199 198 205 213 223 223 227 245 254 258 252 266 256 246 244 240 243 236 233 229 238 235 235 241 241 238 245 251 251 251 251 207 200 185
221 218 222 220 222 227 220 212 215 218 215 223 219 220 226 236 255 251 262 263 271 285 279 272 260 245 241 232 229 231 230 226 234 235 242 254 261 265 260 250 224 214 192
230 228 226 220 220 221 220 223 223 225 219 209 212 204 163 172 208 264 277 295 292 279 267 260 252 246 241 232 224 224 223 228 229 241 248 244 250 257 253 244 244 217 221
242 233 229 225 227 222 213 208 206 207 197 175 160 153 150 111 359 315 317 294 292 284 279 263 248 239 232 232 227 227 231 221 220 230 234 245 254 256 255 262 274 231 193
239 239 230 220 217 211 197 193 176 167 145 130 133 136 148 171 261 279 287 295 298 292 290 273 268 256 239 237 231 218 231 227 226 222 211 223 237 266 273 281 258 180 142
244 237 235 233 215 189 179 161 145 138 146 156 171 188 188 286 286 309 318 311 302 295 288 276 258 245 242 236 228 211 206 232 231 211 202 217 235 260 270 279 162 137 129
250 247 237 223 200 179 164 141 149 164 170 175 193 174 42 311 303 304 313 303 297 298 295 278 262 246 235 235 224 213 206 220 214 202 199 213 249 263 265 275 174 153 143
253 248 222 205 174 167 156 164 165 162 179 186 185 215 253 297 299 309 305 299 301 299 285 274 247 247 243 220 213 206 209 207 209 181 182 209 231 246 246 206 159 159 155
240 228 196 177 163 159 164 143 154 163 174 193 228 247 286 296 302 303 299 298 299 295 285 276 265 256 245 218 219 200 208 201 194 173 186 185 203 220 215 149 146 161 157
232 212 182 160 145 147 152 156 157 166 177 225 236 243 286 287 302 303 310 313 312 307 299 295 298 267 260 231 227 206 187 201 190 169 186 182 193 205 201 146 147 148 147
173 150 147 130 128 134 141 154 169 178 211 222 217 222 247 262 290 314 314 314 323 313 330 320 308 284 276 246 221 192 186 187 182 169 188 202 196 190 178 157 155 156 157
140 126 129 133 132 143 149 160 164 210 135 132 234 292 279 268 280 301 306 313 324 306 326 313 312 319 306 284 239 203 192 189 178 173 182 190 182 179 184 156 168 168 148
135 134 128 125 122 132 142 144 149 172 294 316 298 277 278 278 291 298 295 300 310 295 302 306 308 325 329 327 329 261 213 174 175 182 172 178 176 177 164 169 148 141 137
137 129 129 118 111 114 115 116 97 34 22 2 320 296 290 268 272 274 269 289 287 286 291 291 301 309 322 339 344 331 230 179 155 154 168 157 161 143 143 158 145 141 143
129 123 128 130 119 110 111 105 80 47 340 311 286 261 247 272 242 209 188 218 237 264 272 283 294 300 309 327 347 10 104 137 109 130 149 149 146 141 125 121 137 158 158
125 127 127 135 134 123 109 96 81 3 291 292 277 265 249 250 225 198 175 179 209 242 251 244 272 287 300 307 282 191 144 144 133 121 121 134 148 147 137 128 133 140 157
130 121 114 118 112 114 101 113 94 1 310 287 288 288 280 262 233 172 165 203 212 231 235 238 226 262 251 298 254 215 173 146 136 123 153 155 158 157 153 154 152 156 171